Location: Unspecified
(0.0000°N, 0.0000°E)
Time: 02:00:42
(UTC+00:00)

Transit 2A - All Passes

Search period start: 21 April 2014 00:00
Search period end: 01 May 2014 00:00
Orbit: 600 x 963 km, 66.7° (Epoch: 20 April)

Date Brightness Start Highest point End Pass type
(mag) Time Alt. Az. Time Alt. Az. Time Alt. Az.
21 Apr - 10:40:44 10° NW 10:44:54 48° WSW 10:49:19 10° S daylight
21 Apr - 21:31:46 10° S 21:37:29 35° ESE 21:42:58 10° NE night (unlit)
21 Apr - 23:15:55 10° WSW 23:20:29 21° WNW 23:24:55 10° NNW night (unlit)
22 Apr - 10:07:13 10° NNW 10:11:32 89° WSW 10:16:06 10° SSE daylight
22 Apr - 20:59:14 10° SSE 21:04:03 23° ESE 21:08:43 10° ENE night (unlit)
22 Apr - 22:41:33 10° SW 22:47:08 33° WNW 22:52:28 10° N night (unlit)
23 Apr - 09:34:00 10° N 09:38:10 49° ENE 09:42:34 10° SE daylight
23 Apr - 20:27:25 10° SE 20:30:35 14° ESE 20:33:42 10° E night (unlit)
23 Apr - 22:07:39 10° SW 22:13:46 52° WNW 22:19:36 10° N night (unlit)
24 Apr - 09:01:10 10° NNE 09:04:50 27° ENE 09:08:38 10° SE daylight
24 Apr - 10:46:04 10° W 10:47:48 12° WSW 10:49:34 10° SW daylight
24 Apr - 21:34:02 10° SSW 21:40:24 81° WNW 21:46:25 10° NNE night (unlit)
25 Apr - 08:28:57 10° NE 08:31:29 15° ENE 08:34:04 10° ESE daylight
25 Apr - 10:11:01 10° WNW 10:14:21 21° WSW 10:17:52 10° SSW daylight
25 Apr - 21:00:43 10° S 21:07:01 66° ESE 21:12:59 10° NNE night (unlit)
25 Apr - 22:49:36 10° WNW 22:49:58 10° WNW 22:50:20 10° WNW night (unlit)
26 Apr - 09:36:54 10° NW 09:40:56 37° WSW 09:45:13 10° S daylight
26 Apr - 20:27:40 10° S 20:33:36 42° ESE 20:39:16 10° NE night (unlit)
26 Apr - 22:12:39 10° WSW 22:16:35 17° WNW 22:20:23 10° NNW night (unlit)
27 Apr - 09:03:13 10° NNW 09:07:32 70° WSW 09:12:08 10° SSE daylight
27 Apr - 19:54:57 10° SSE 20:00:10 27° ESE 20:05:11 10° NE night (unlit)
27 Apr - 21:38:01 10° SW 21:43:13 27° WNW 21:48:11 10° NNW night (unlit)
28 Apr - 08:29:53 10° N 08:34:10 63° ENE 08:38:43 10° SSE daylight
28 Apr - 19:22:46 10° SSE 19:26:43 17° ESE 19:30:33 10° ENE visible
28 Apr - 21:03:56 10° SW 21:09:51 43° WNW 21:15:28 10° N night (unlit)
29 Apr - 07:56:52 10° N 08:00:49 34° ENE 08:04:57 10° SE daylight
29 Apr - 18:52:52 10° ESE 18:53:14 10° ESE 18:53:35 10° ESE visible
29 Apr - 20:30:12 10° SSW 20:36:29 68° WNW 20:42:24 10° NNE visible
30 Apr - 07:24:20 10° NNE 07:27:28 19° ENE 07:30:42 10° ESE daylight
30 Apr - 09:07:27 10° WNW 09:10:23 17° WSW 09:13:26 10° SSW daylight
30 Apr - 19:56:45 10° SSW 20:03:06 79° ESE 20:09:04 10° NNE visible
